{"data":{"norad_id":65566,"epoch":"2026-09-20T01:08:43.554912Z","epoch_age_seconds":53451,"freshness":"FRESH","line1":"1 65566U 25203B   26263.04772633  .00000117  00000+0  95079-4 0  9993","line2":"2 65566  81.3000 282.8804 0008625 297.8532  62.1750 13.83966676 51823","mean_motion":13.83966676,"eccentricity":0.0008625,"inclination_deg":81.3,"raan_deg":282.8804,"arg_perigee_deg":297.8532,"mean_anomaly_deg":62.175,"bstar":9.5079e-5,"rev_number":5182,"period_min":104.04874806393,"perigee_km":943.530663508,"apogee_km":956.17144289978,"semimajor_km":7327.9880532039,"source":"CELESTRAK","updated_at":"2026-09-20T09:00:47.714051Z"}}